Muscle Shoals, AL

5:51 AM CDT on April 24, 2018 (GMT -0500)
Northwest Alabama Regional

Weather History for KMSL - April, 2013

Change the Weather History Date:

Thursday, April 11, 2013

  Actual Average Record
Temperature  
Mean Temperature 63 °F 60 °F  
Max Temperature 76 °F 72 °F 88 °F (1906)
Min Temperature 49 °F 48 °F 27 °F (1989)
Degree Days  
Heating Degree Days 2 6  
Month to date heating degree days 75 81  
Since 1 July heating degree days 2811 2994  
Cooling Degree Days 0 1  
Month to date cooling degree days 18 11  
Year to date cooling degree days 26 24  
Growing Degree Days 12 (Base 50)    
Moisture  
Dew Point 59 °F    
Average Humidity 76    
Maximum Humidity 90    
Minimum Humidity 61    
Precipitation  
Precipitation 1.46 in 0.15 in 1.93 in (1995)
Month to date precipitation 1.96 1.63  
Year to date precipitation 18.23 15.66  
Snow  
Snow 0.00 in - - ()
Month to date snowfall 0.0  
Since 1 July snowfall T  
Snow Depth 0.00 in    
Sea Level Pressure  
Sea Level Pressure 29.71 in    
Wind  
Wind Speed 10 mph (WSW)    
Max Wind Speed 23 mph    
Max Gust Speed 29 mph    
Visibility 6 miles    
Events Rain , Thunderstorm    
T = Trace of Precipitation, MM = Missing Value Source: NWS Daily Summary

Daily Weather History Graph

Daily Weather History Graph

Search for Another Location

Airport or City:

Astronomy

Apr. 11, 2013 Rise Set
Actual Time 6:23 AM CDT 7:19 PM CDT
Civil Twilight 5:57 AM CDT 7:45 PM CDT
Nautical Twilight 5:27 AM CDT 8:16 PM CDT
Astronomical Twilight 4:55 AM CDT 8:47 PM CDT
Moon 6:58 AM CDT (4/11) 8:49 PM CDT (4/11)
Length of Visible Light 13h 47m
Length of Day
12h 56m
New Moon, 2% of the Moon is Illuminated
Apr 11
New Moon
Apr 18
First Quarter
Apr 25
Full
May 2
Last Quarter
May 9
New

Hourly Weather History & Observations

Time (CDT) Temp. Dew Point Humidity Pressure Visibility Wind Dir Wind Speed Gust Speed Precip Events Conditions
12:53 AM 73.9 °F 59.0 °F 59% 29.82 in 10.0 mi SSW 9.2 mph - N/A   Clear
1:53 AM 73.0 °F 60.1 °F 64% 29.79 in 10.0 mi South 8.1 mph - N/A   Clear
2:53 AM 71.1 °F 60.1 °F 68% 29.78 in 10.0 mi South 8.1 mph - N/A   Clear
3:53 AM 71.1 °F 59.0 °F 66% 29.79 in 10.0 mi South 10.4 mph - N/A   Mostly Cloudy
4:53 AM 69.1 °F 59.0 °F 70% 29.78 in 10.0 mi South 8.1 mph 17.3 mph N/A   Clear
5:53 AM 69.1 °F 60.1 °F 73% 29.78 in 10.0 mi SSE 9.2 mph - N/A   Partly Cloudy
6:53 AM 68.0 °F 61.0 °F 78% 29.77 in 10.0 mi SSE 8.1 mph - N/A   Clear
7:53 AM 69.1 °F 62.1 °F 78% 29.77 in 10.0 mi SSE 10.4 mph - N/A   Scattered Clouds
8:13 AM 69.8 °F 62.6 °F 78% 29.78 in 10.0 mi SSE 11.5 mph - N/A   Mostly Cloudy
8:22 AM 69.8 °F 62.6 °F 78% 29.77 in 10.0 mi SSE 12.7 mph - N/A   Mostly Cloudy
8:41 AM 69.8 °F 62.6 °F 78% 29.78 in 10.0 mi SSE 9.2 mph - N/A   Overcast
8:53 AM 71.1 °F 62.1 °F 73% 29.76 in 10.0 mi South 12.7 mph - N/A   Overcast
9:53 AM 72.0 °F 62.1 °F 71% 29.75 in 10.0 mi South 10.4 mph 21.9 mph N/A   Overcast
10:53 AM 73.9 °F 63.0 °F 68% 29.73 in 10.0 mi South 13.8 mph 28.8 mph N/A   Overcast
11:34 AM 71.6 °F 64.4 °F 78% 29.72 in 1.8 mi South 10.4 mph - 0.07 in Rain Heavy Rain
11:45 AM 71.6 °F 64.4 °F 78% 29.71 in 3.0 mi South 9.2 mph - 0.08 in Rain Light Rain
12:53 PM 73.0 °F 64.0 °F 73% 29.64 in 10.0 mi South 10.4 mph - 0.01 in Rain Light Rain
1:26 PM 73.4 °F 64.4 °F 73% 29.66 in 10.0 mi South 13.8 mph - 0.00 in Thunderstorm Overcast
1:42 PM 66.2 °F 62.6 °F 88% 29.67 in 2.5 mi NW 15.0 mph 26.5 mph 0.07 in Rain , Thunderstorm Heavy Thunderstorms and Rain
1:49 PM 64.4 °F 60.8 °F 88% 29.70 in 1.8 mi West 21.9 mph 27.6 mph 0.14 in Rain , Thunderstorm Heavy Thunderstorms and Rain
1:53 PM 63.0 °F 60.1 °F 90% 29.66 in 1.2 mi North 11.5 mph 27.6 mph 0.22 in Rain , Thunderstorm Heavy Thunderstorms and Rain
2:00 PM 62.6 °F 59.0 °F 88% 29.69 in 1.2 mi NW 12.7 mph 24.2 mph 0.06 in Rain , Thunderstorm Heavy Thunderstorms and Rain
2:13 PM 62.6 °F 59.0 °F 88% 29.66 in 1.8 mi NNW 10.4 mph 21.9 mph 0.14 in Rain , Thunderstorm Heavy Thunderstorms and Rain
2:44 PM 62.6 °F 59.0 °F 88% 29.67 in 2.0 mi North 5.8 mph - 0.43 in Rain , Thunderstorm Heavy Rain
2:53 PM 62.1 °F 59.0 °F 90% 29.66 in 2.5 mi Calm Calm - 0.46 in Rain , Thunderstorm Rain
3:01 PM 62.6 °F 59.0 °F 88% 29.69 in 2.0 mi WNW 3.5 mph - 0.02 in Rain , Thunderstorm Thunderstorms and Rain
3:07 PM 62.6 °F 60.8 °F 94% 29.70 in 3.0 mi West 6.9 mph - 0.04 in Rain , Thunderstorm Thunderstorms and Rain
3:13 PM 62.6 °F 60.8 °F 94% 29.71 in 2.0 mi West 5.8 mph - 0.06 in Rain , Thunderstorm Heavy Rain
3:23 PM 62.6 °F 60.8 °F 94% 29.72 in 1.5 mi WNW 6.9 mph - 0.11 in Rain Heavy Rain
3:35 PM 62.6 °F 60.8 °F 94% 29.74 in 1.0 mi WSW 6.9 mph - 0.19 in Rain Heavy Rain
3:37 PM 62.6 °F 60.8 °F 94% 29.72 in 0.8 mi Calm Calm - 0.20 in Rain Heavy Rain
3:44 PM 62.6 °F 60.8 °F 94% 29.72 in 1.0 mi WNW 5.8 mph - 0.28 in Rain Heavy Rain
3:53 PM 63.0 °F 60.1 °F 90% 29.69 in 1.5 mi NW 4.6 mph - 0.38 in Rain Heavy Rain
4:02 PM 62.6 °F 60.8 °F 94% 29.71 in 2.0 mi Calm Calm - 0.11 in Rain Heavy Rain
4:10 PM 62.6 °F 59.0 °F 88% 29.69 in 2.5 mi Calm Calm - 0.15 in Rain Rain
4:21 PM 62.6 °F 60.8 °F 94% 29.67 in 4.0 mi Calm Calm - 0.18 in Rain Rain
4:53 PM 62.1 °F 59.0 °F 90% 29.63 in 7.0 mi NNE 4.6 mph - 0.22 in Rain Light Rain
5:06 PM 62.6 °F 59.0 °F 88% 29.61 in 6.0 mi ENE 6.9 mph - 0.02 in Rain Light Rain
5:53 PM 62.1 °F 59.0 °F 90% 29.58 in 10.0 mi SE 4.6 mph - 0.04 in   Overcast
6:53 PM 63.0 °F 59.0 °F 87% 29.63 in 9.0 mi SW 3.5 mph - N/A   Overcast
7:53 PM 63.0 °F 59.0 °F 87% 29.65 in 10.0 mi West 15.0 mph - N/A   Overcast
8:09 PM 60.8 °F 57.2 °F 88% 29.68 in 2.5 mi WNW 19.6 mph 25.3 mph 0.03 in Rain Heavy Rain
8:21 PM 57.2 °F 53.6 °F 88% 29.68 in 4.0 mi WNW 17.3 mph - 0.05 in Rain Light Rain
8:31 PM 57.2 °F 53.6 °F 88% 29.69 in 6.0 mi WNW 17.3 mph 24.2 mph 0.05 in   Overcast
8:53 PM 55.9 °F 52.0 °F 87% 29.68 in 10.0 mi NW 12.7 mph 23.0 mph 0.05 in   Overcast
9:53 PM 54.0 °F 50.0 °F 86% 29.70 in 10.0 mi WNW 15.0 mph - N/A   Overcast
10:53 PM 53.1 °F 48.9 °F 86% 29.75 in 10.0 mi WNW 12.7 mph - N/A   Overcast
11:48 PM 51.8 °F 46.4 °F 82% 29.77 in 10.0 mi WNW 15.0 mph - N/A   Overcast
11:53 PM 52.0 °F 46.9 °F 83% 29.76 in 10.0 mi WNW 17.3 mph - N/A   Overcast